Location: Bern�tre
(50.1974°N, 2.0915°E)
Time: 09:06:38
(UTC+00:00)

Sich 1 Rocket - Pass Details

Date: 18 September 2020
Orbit: 616 x 652 km, 82.5° (Epoch: 27 October)

Event Time Altitude Azimuth Distance (km) Brightness Sun altitude
Rises 19:20:59 0° 192° (SSW) 2,918 6.9 -13.9°
Reaches altitude 10° 19:23:12 10° 193° (SSW) 2,020 6.1 -14.2°
Maximum altitude 19:27:41 79° 281° (W) 660 3.8 -14.9°
Drops below altitude 10° 19:32:16 10° 8° (N) 2,058 6.4 -15.5°
Sets 19:34:33 0° 10° (N) 2,978 7.2 -15.9°
